Regional Weather Roundup
Issued by NWS

Home | Current Version | Previous Version | Graphics & Text | Print | Product List | Glossary On
Versions: 1 2 3 4 5 6 7 8 9 10 11 12 13 14 15 16 17 18 19 20 21 22 23 24 25 26 27 28 29 30 31 32 33 34 35 36 37 38 39 40 41 42 43 44 45 46 47 48 49 50
000
ASUS44 KMEG 271410
RWRTN
TENNESSEE HOURLY STATE WEATHER ROUNDUP
NATIONAL WEATHER SERVICE MEMPHIS TN
800 AM CST MON FEB 27 2017

TNZ002-004-019-021-049-052-054-088>092-271500-
WEST TENNESSEE

CITY           SKY/WX    TMP DP  RH WIND       PRES   REMARKS
MEMPHIS INTL   MOSUNNY   49  45  86 SE6       30.11R
NWS MEMPHIS      N/A     47 N/A N/A MISG        N/A
JACKSON        CLOUDY    49  43  80 SE9       30.13R
UNION CITY     CLOUDY    48  48 100 CALM      30.14R
PARIS          MOSUNNY   46  41  81 S8        30.15R
HUNTINGDON     SUNNY     50  43  76 S13       30.14R
$$

TNZ008-025-027-028-033-062-065-066-271500-
NORTH MIDDLE TENNESSEE

CITY           SKY/WX    TMP DP  RH WIND       PRES   REMARKS
NASHVILLE      CLOUDY    46  33  60 S6        30.21F
PORTLAND       PTSUNNY   45  43  93 SE9       30.19F
CLARKSVILLE    MOSUNNY   48  43  82 S6        30.18R
SMYRNA         LGT RAIN  46  35  65 S3        30.23S
COOKEVILLE     SUNNY     52  25  35 S9        30.23R
GALLATIN       CLOUDY    46  36  66 SE5G12    30.23R
CROSSVILLE     CLOUDY    43  21  41 SE3       30.26S
$$

TNZ061-075-076-078-094-096-097-271500-
SOUTH MIDDLE TENNESSEE

CITY           SKY/WX    TMP DP  RH WIND       PRES   REMARKS
FAYETTEVILLE   MOSUNNY   48  34  57 CALM      30.26R
TULLAHOMA      MOSUNNY   46  25  42 CALM      30.25R
WINCHESTER     MOSUNNY   48  32  53 S3        30.27R
MCMINNVILLE    SUNNY     46  36  66 CALM      30.23S
COLUMBIA       CLOUDY   N/A N/A N/A S8        30.21S
SHELBYVILLE    PTSUNNY   48  32  53 SE9       30.24S
$$

TNZ017-018-042-046-047-271500-
NORTHEAST TENNESSEE

CITY           SKY/WX    TMP DP  RH WIND       PRES   REMARKS
TRI CITIES     PTSUNNY   40  27  59 CALM      30.32R
ELIZABETHTON   MOSUNNY   45  27  49 E6        30.32R
$$

TNZ012-013-036-069-073-074-271500-
CENTRAL EAST TENNESSEE

CITY           SKY/WX    TMP DP  RH WIND       PRES   REMARKS
KNOXVILLE      CLOUDY    41  26  55 NE9       30.28S
OAK RIDGE      CLOUDY    41  29  62 E3        30.31R
GATLINBURG     SUNNY     36  27  69 CALM      30.29S
MORRISTOWN     SUNNY     43  23  45 E5        30.28F
JACKSBORO      SUNNY     37  30  75 CALM      30.32S
$$

TNZ083-085-099-271500-
SOUTHEAST TENNESSEE

CITY           SKY/WX    TMP DP  RH WIND       PRES   REMARKS
CHATTANOOGA    CLOUDY    45  30  55 NE8       30.29R
$$

SKY/WX REPORTED AS FAIR MEANS FEW OR NO CLOUDS BELOW
12 THOUSAND FEET.




USA.gov is the U.S. government's official web portal to all federal, state and local government web resources and services.